Regional Weather Roundup
Issued by NWS

Home | Current Version | Previous Version | Text Only | Print | Product List | Glossary On
Versions: 1 2 3 4 5 6 7 8 9 10 11 12 13 14 15 16 17 18 19 20 21 22 23 24 25 26 27 28 29 30 31 32 33 34 35 36 37 38 39 40 41 42 43 44 45 46 47 48 49 50
729
ASUS44 KLIX 211605
RWRLA
LOUISIANA WEATHER ROUNDUP
NATIONAL WEATHER SERVICE NEW ORLEANS LA
1100 AM CDT SUN SEP 21 2014

NOTE: "FAIR" INDICATES FEW OR NO CLOUDS BELOW 12,000 FEET WITH NO
      SIGNIFICANT WEATHER AND/OR OBSTRUCTIONS TO VISIBILITY.
      SKY/WX - SKY CONDITION AND SIGNIFICANT WEATHER.
      TMP - AIR TEMPERATURE.    DP   - DEWPOINT TEMPERATURE.
      RH  - RELATIVE HUMIDITY.  PRES - PRESSURE.
      HX  - HEAT INDEX.         WCI  - WIND CHILL INDEX.

*  THESE STATIONS ARE NOT NWS OR FAA STATIONS AND ARE NOT UNDER
   NWS QUALITY CONTROL.

LAZ040-048-061>063-065-066-069-211700-
SOUTHEAST LOUISIANA

CITY           SKY/WX    TMP DP  RH WIND       PRES   REMARKS
N.O. AUDUBON     N/A     88  71  57 MISG        N/A
N.O. INTL ARPT MOSUNNY   85  69  58 NE10      30.04R
N.O. LAKEFRONT SUNNY     82  71  69 NE9       30.04S
N.O. DOWNTOWN* FAIR      84  66  54 E3        30.04S
SLIDELL        SUNNY     83  68  60 NE8       30.04S
BATON ROUGE    SUNNY     83  68  60 NE7       30.05S
BOOTHVILLE     MOSUNNY   85  74  69 NE10      30.02R
BELLE CHASSE   MOSUNNY   85  71  63 NE10      30.02S
BOGALUSA*        N/A     83  68  60 NE6       30.07S
GALLIANO*      NOT AVBL
NEW ROADS*     FAIR      81  69  66 NE3       30.06S
GONZALES*      FAIR      82  69  65 NE7       30.04S
HAMMOND*       SUNNY     84  64  51 N8        30.07R
HOUMA*         MOSUNNY   82  54  36 NE10      30.03R
PORT FOURCHON* SUNNY     82  73  74 NE13      30.05R

$$

LAZ041-044-053-054-211700-
SOUTHWEST LOUISIANA

CITY           SKY/WX    TMP DP  RH WIND       PRES   REMARKS
LAKE CHARLES   SUNNY     83  72  69 NE6       30.05R
LAFAYETTE      SUNNY     84  70  62 NE7       30.05S
PATTERSON      SUNNY     84  70  61 NE13G18   30.06R
SALT POINT       N/A     86  70  58 VRB7      30.02S
NEW IBERIA     SUNNY     84  70  62 NE9       30.05S
CHENAULT AIRPK SUNNY     82  72  69 NE6       30.05S

$$

LAZ027-028-211700-
CENTRAL LOUISIANA

CITY           SKY/WX    TMP DP  RH WIND       PRES   REMARKS
FORT POLK      SUNNY     82  69  64 CALM      30.08R
ALEXANDRIA INT SUNNY     86  70  58 CALM      30.05S
ALEXANDRIA     SUNNY     86  71  60 CALM      30.07S

$$

LAZ001-002-211700-
NORTHWEST LOUISIANA

CITY           SKY/WX    TMP DP  RH WIND       PRES   REMARKS
SHREVEPORT     SUNNY     88  67  49 N6        30.08R
BARKSDALE AFB  SUNNY     87  67  51 NW7       30.08S
DTN SHREVEPORT SUNNY     87  68  52 N7        30.08S

$$

LAZ014-016-211700-
NORTHEAST LOUISIANA

CITY           SKY/WX    TMP DP  RH WIND       PRES   REMARKS
MONROE         SUNNY     85  70  60 CALM      30.08R
TALLULAH       SUNNY     86  68  54 W3        30.07S

$$




USA.gov is the U.S. government's official web portal to all federal, state and local government web resources and services.